F6BIJ-13 Weather Reports


time (UTC)temp
C
wind
direction
speed
KPH
gust
KPH
rain 1hr
cm
rain 24hr
cm
rain mn
cm
humidity
%
barometer
mb
20260507020037 9 180 0.0 0.0 0.00 0.00 0.56 97 1014.2
20260507015437 9 180 0.0 0.0 0.00 0.00 0.56 96 1014.3
20260507014836 9 0 0.0 0.0 0.00 0.00 0.56 96 1014.1
20260507014237 9 45 0.0 0.0 0.00 0.00 0.56 97 1014.2
20260507013636 9 0 0.0 0.0 0.00 0.00 0.56 97 1014.2
20260507013037 8 45 0.0 0.0 0.00 0.00 0.56 97 1014.2
20260507012437 9 180 0.0 0.0 0.00 0.00 0.56 97 1014.2
20260507011837 9 180 0.0 0.0 0.00 0.00 0.56 96 1014.1
20260507011237 9 180 0.0 0.0 0.00 0.00 0.56 96 1014.1
20260507010637 8 225 0.0 0.0 0.00 0.00 0.56 97 1014.1
20260507010037 8 180 0.0 0.0 0.00 0.00 0.56 96 1014.0
20260507005437 9 0 0.0 0.0 0.00 0.00 0.56 96 1013.9
20260507004837 9 225 0.0 0.0 0.00 0.00 0.56 96 1014.0
20260507004236 9 180 0.0 0.0 0.00 0.00 0.56 96 1014.1
20260507003637 9 225 0.0 0.0 0.00 0.00 0.56 96 1014.0
20260507003037 9 180 0.0 0.0 0.00 0.00 0.56 96 1014.1
20260507002437 9 225 1.6 1.6 0.00 0.00 0.56 96 1014.1
20260507001837 8 225 1.6 1.6 0.00 0.00 0.56 96 1014.1
20260507001237 8 180 0.0 1.6 0.00 0.00 0.56 96 1014.2
20260507000636 8 180 0.0 1.6 0.00 0.00 0.56 96 1014.0
20260507000037 9 180 0.0 0.0 0.00 0.00 0.56 96 1014.0
20260506235437 8 180 0.0 0.0 0.00 0.00 0.56 96 1014.1
20260506234837 9 45 0.0 0.0 0.00 0.00 0.56 96 1014.2
20260506233637 9 225 0.0 0.0 0.00 0.00 0.56 96 1014.2
20260506233037 9 90 0.0 0.0 0.00 0.00 0.56 96 1014.1
20260506232437 9 180 0.0 0.0 0.00 0.00 0.56 95 1014.0
20260506231837 9 225 0.0 0.0 0.00 0.00 0.56 95 1014.1
20260506231237 10 225 1.6 1.6 0.00 0.00 0.56 96 1014.1
20260506230636 10 225 0.0 0.0 0.00 0.00 0.56 95 1014.0
20260506230037 10 135 0.0 0.0 0.00 0.00 0.56 95 1014.0
20260506225437 10 0 0.0 0.0 0.00 0.00 0.56 95 1014.1
20260506224837 10 90 0.0 0.0 0.00 0.00 0.56 95 1014.0
20260506224237 9 135 0.0 0.0 0.00 0.00 0.56 95 1014.0
20260506223637 10 90 0.0 0.0 0.00 0.00 0.56 95 1013.9
20260506223037 10 90 0.0 0.0 0.00 0.00 0.56 94 1014.0
20260506222437 9 180 0.0 0.0 0.00 0.00 0.56 94 1013.9
20260506221837 10 225 0.0 0.0 0.00 0.00 0.56 94 1013.9
20260506221236 10 90 0.0 0.0 0.00 0.00 0.56 94 1013.9
20260506220636 10 180 0.0 0.0 0.00 0.00 0.56 93 1013.9
20260506220037 10 180 0.0 0.0 0.00 0.00 0.56 94 1013.7
20260506215437 10 180 0.0 0.0 0.00 0.00 0.56 93 1013.7
20260506213037 10 315 3.2 3.2 0.00 0.00 0.56 94 1013.5
20260506212437 10 315 0.0 1.6 0.00 0.00 0.56 94 1013.5
20260506211837 10 180 0.0 1.6 0.00 0.00 0.56 94 1013.4
20260506211236 10 135 0.0 0.0 0.00 0.00 0.56 94 1013.4
20260506210637 10 135 0.0 0.0 0.00 0.00 0.56 94 1013.4
20260506210037 11 180 0.0 0.0 0.00 0.00 0.56 94 1013.3
20260506205437 10 0 0.0 1.6 0.00 0.00 0.56 94 1013.3
20260506204837 10 180 0.0 1.6 0.00 0.00 0.56 94 1013.2
20260506204237 10 180 0.0 1.6 0.00 0.00 0.56 94 1013.2
20260506203637 10 90 0.0 0.0 0.00 0.00 0.56 94 1013.2
20260506203036 10 90 0.0 0.0 0.00 0.00 0.56 93 1013.2
20260506202437 10 180 0.0 0.0 0.00 0.00 0.56 94 1013.1
20260506201837 10 225 1.6 1.6 0.00 0.00 0.56 94 1013.1
20260506201236 10 180 0.0 0.0 0.00 0.00 0.56 93 1013.1
20260506200637 10 180 0.0 0.0 0.00 0.00 0.56 94 1013.0
20260506200037 10 45 0.0 0.0 0.00 0.00 0.56 93 1012.8
20260506195436 10 0 0.0 0.0 0.00 0.00 0.56 93 1012.6
20260506194836 10 45 0.0 0.0 0.00 0.00 0.56 94 1012.5
20260506194237 10 135 0.0 1.6 0.00 0.00 0.56 94 1012.5
20260506193637 10 225 0.0 0.0 0.00 0.00 0.56 93 1012.4
20260506193037 10 225 0.0 0.0 0.00 0.00 0.56 93 1012.4
20260506192436 10 225 0.0 0.0 0.00 0.00 0.56 92 1012.3
20260506191837 10 90 0.0 0.0 0.00 0.00 0.56 93 1012.2
20260506191237 10 225 0.0 1.6 0.00 0.00 0.56 92 1012.2
20260506190637 10 180 0.0 0.0 0.00 0.00 0.56 92 1012.1
20260506190036 10 135 0.0 0.0 0.00 0.00 0.56 92 1012.0
20260506185436 10 180 0.0 1.6 0.00 0.00 0.56 92 1011.9
20260506184837 10 180 0.0 0.0 0.00 0.00 0.56 92 1011.9
20260506184237 10 90 0.0 0.0 0.00 0.00 0.56 91 1011.9
20260506183637 11 0 0.0 0.0 0.00 0.00 0.56 90 1011.9
20260506183037 11 45 0.0 0.0 0.00 0.00 0.56 90 1011.8
20260506182437 11 90 0.0 1.6 0.00 0.00 0.56 89 1011.8
20260506181837 11 90 1.6 1.6 0.00 0.00 0.56 89 1011.7
20260506181237 11 90 0.0 0.0 0.00 0.00 0.56 89 1011.6
20260506180637 11 45 0.0 0.0 0.00 0.00 0.56 88 1011.5
20260506180037 11 90 0.0 0.0 0.00 0.00 0.56 89 1011.5
20260506175436 11 135 0.0 0.0 0.00 0.00 0.56 89 1011.5
20260506174836 11 135 0.0 1.6 0.00 0.00 0.56 89 1011.4
20260506174237 12 90 0.0 1.6 0.00 0.00 0.56 89 1011.3
20260506173637 12 180 0.0 0.0 0.00 0.00 0.56 88 1011.2
20260506173037 11 180 0.0 1.6 0.00 0.00 0.56 88 1011.1
20260506172437 12 90 0.0 0.0 0.00 0.00 0.56 87 1011.0
20260506171836 12 45 0.0 0.0 0.00 0.00 0.56 87 1011.0
20260506171237 12 135 0.0 1.6 0.00 0.00 0.56 86 1010.9
20260506170637 13 45 0.0 0.0 0.00 0.00 0.56 86 1010.8
20260506170037 13 270 0.0 0.0 0.00 0.00 0.56 85 1010.8
20260506165437 13 135 0.0 0.0 0.00 0.00 0.56 85 1011.0
20260506164836 13 180 0.0 0.0 0.00 0.00 0.56 83 1011.0
20260506164237 13 90 0.0 0.0 0.00 0.00 0.56 83 1011.0
20260506163637 13 135 0.0 0.0 0.00 0.00 0.56 79 1011.0
20260506163037 13 315 0.0 0.0 0.00 0.00 0.56 78 1011.0
20260506162437 13 45 0.0 0.0 0.00 0.00 0.56 78 1011.2
20260506161837 13 0 0.0 0.0 0.00 0.00 0.56 79 1011.2
20260506161237 14 315 0.0 0.0 0.00 0.00 0.56 74 1011.1
20260506160637 13 315 0.0 1.6 0.00 0.00 0.56 73 1011.0
20260506160037 14 180 0.0 1.6 0.00 0.00 0.56 74 1011.3
20260506155436 14 0 0.0 0.0 0.00 0.00 0.56 73 1011.2
20260506154836 14 45 0.0 0.0 0.00 0.00 0.56 71 1011.2
20260506154237 14 45 0.0 3.2 0.00 0.00 0.56 73 1011.2
20260506153637 14 90 0.0 0.0 0.00 0.00 0.56 71 1011.2
20260506153037 15 180 0.0 1.6 0.00 0.00 0.56 73 1011.4
20260506152437 14 0 0.0 1.6 0.00 0.00 0.56 72 1011.5
20260506151837 15 180 1.6 1.6 0.00 0.00 0.56 74 1011.4
20260506151237 14 315 0.0 1.6 0.00 0.00 0.56 71 1011.5
20260506150637 15 315 0.0 0.0 0.00 0.00 0.56 67 1011.6
20260506150037 15 315 3.2 4.8 0.00 0.00 0.56 64 1011.6
20260506145437 15 45 1.6 3.2 0.00 0.00 0.56 68 1011.6
20260506144836 15 0 0.0 0.0 0.00 0.00 0.56 71 1011.5
20260506144237 15 0 0.0 0.0 0.00 0.00 0.56 69 1011.6
20260506143637 15 315 0.0 1.6 0.00 0.00 0.56 73 1011.7
20260506143037 15 180 0.0 0.0 0.00 0.00 0.56 71 1011.7
20260506142437 15 135 0.0 1.6 0.00 0.00 0.56 66 1011.8
20260506141836 15 225 0.0 0.0 0.00 0.00 0.56 71 1011.8
20260506141237 15 90 0.0 0.0 0.00 0.00 0.56 70 1011.9
20260506140637 15 0 1.6 1.6 0.00 0.00 0.56 68 1011.9
20260506140037 15 90 1.6 6.4 0.00 0.00 0.56 74 1012.0
20260506135436 14 0 1.6 3.2 0.00 0.00 0.56 66 1012.0
20260506134836 15 315 1.6 3.2 0.00 0.00 0.56 71 1012.0
20260506134237 15 180 0.0 1.6 0.00 0.00 0.56 65 1012.0
20260506133637 16 0 0.0 1.6 0.00 0.00 0.56 66 1012.0
20260506133037 16 180 0.0 3.2 0.00 0.00 0.56 66 1012.1
20260506132437 15 0 1.6 1.6 0.00 0.00 0.56 69 1012.2
20260506131837 15 0 1.6 3.2 0.00 0.00 0.56 69 1012.2
20260506131237 16 315 0.0 1.6 0.00 0.00 0.56 65 1012.3
20260506130637 16 180 0.0 1.6 0.00 0.00 0.56 69 1012.2
20260506130037 15 315 3.2 4.8 0.00 0.00 0.56 65 1012.4
20260506125437 14 0 3.2 4.8 0.00 0.00 0.56 70 1012.4
20260506124836 14 315 3.2 9.7 0.00 0.00 0.56 71 1012.4
20260506124237 14 0 1.6 1.6 0.00 0.00 0.56 74 1012.4
20260506123637 15 45 0.0 0.0 0.00 0.00 0.56 74 1012.5
20260506123037 14 0 1.6 1.6 0.00 0.00 0.56 79 1012.4
20260506122437 13 135 0.0 0.0 0.00 0.00 0.56 71 1012.4
20260506121838 13 0 3.2 3.2 0.00 0.00 0.56 74 1012.5
20260506121237 13 45 1.6 3.2 0.00 0.00 0.56 76 1012.5
20260506120637 13 135 1.6 3.2 0.00 0.00 0.56 75 1012.6
20260506120037 13 90 0.0 1.6 0.00 0.00 0.56 78 1012.5
20260506115436 14 90 0.0 3.2 0.00 0.00 0.56 86 1012.6
20260506114836 13 135 1.6 3.2 0.00 0.00 0.56 89 1012.6
20260506114237 13 180 1.6 3.2 0.00 0.00 0.56 94 1012.6
20260506113637 12 135 0.0 1.6 0.00 0.00 0.56 94 1012.6
20260506113037 11 135 1.6 3.2 0.00 0.10 0.56 94 1012.6
20260506112436 11 135 1.6 3.2 0.00 0.15 0.56 94 1012.7
20260506111837 10 180 0.0 1.6 0.00 0.18 0.53 93 1012.8
20260506111237 10 90 0.0 0.0 0.00 0.23 0.53 92 1012.7
20260506110637 10 45 0.0 0.0 0.00 0.20 0.51 90 1012.7
20260506110037 11 135 1.6 1.6 0.00 0.10 0.48 88 1012.6
20260506105436 10 180 0.0 0.0 0.00 0.10 0.48 88 1012.6
20260506100637 11 135 3.2 4.8 0.00 0.00 0.46 93 1012.2
20260506093637 11 315 0.0 1.6 0.00 0.00 0.43 94 1011.8
20260506092437 11 315 0.0 0.0 0.00 0.15 0.43 95 1011.4
20260506091837 11 225 3.2 4.8 0.00 0.23 0.43 94 1011.1
20260506091237 11 180 1.6 3.2 0.00 0.25 0.41 94 1010.9
20260506090637 11 180 1.6 1.6 0.00 0.18 0.38 95 1010.9
20260506085437 11 315 0.0 3.2 0.00 0.00 0.36 96 1010.8
20260506084836 11 0 3.2 6.4 0.00 0.00 0.36 96 1010.7
20260506080637 11 180 0.0 0.0 0.00 0.10 0.36 97 1010.4
20260506073037 11 225 0.0 0.0 0.00 0.28 0.28 98 1010.1
20260506072437 11 180 0.0 0.0 0.00 0.33 0.28 98 1010.1
20260506071836 11 180 0.0 0.0 0.00 0.28 0.23 98 1010.1
20260506071237 10 180 0.0 0.0 0.00 0.25 0.23 98 1009.8
20260506070637 11 180 0.0 0.0 0.00 0.25 0.20 98 1009.7
20260506062437 11 225 0.0 0.0 0.00 0.33 0.10 97 1009.3
20260506051237 10 180 0.0 0.0 0.00 0.20 0.84 97 1008.8
20260506050637 10 180 0.0 0.0 0.00 0.23 0.81 97 1008.8
20260506044837 10 180 0.0 0.0 0.00 0.15 0.79 97 1008.7
20260506044237 11 180 0.0 0.0 0.00 0.20 0.76 97 1008.6
20260506043637 11 180 0.0 0.0 0.00 0.28 0.76 97 1008.6
20260506043037 10 180 0.0 0.0 0.00 0.33 0.76 97 1008.6
20260506042437 10 180 0.0 0.0 0.00 0.30 0.71 97 1008.8
20260506041837 10 180 0.0 0.0 0.00 0.25 0.71 97 1008.7
20260506041237 10 180 0.0 0.0 0.00 0.18 0.66 97 1008.7
20260506040637 10 180 0.0 0.0 0.00 0.10 0.66 97 1008.8
20260506031236 10 180 0.0 0.0 0.00 0.00 0.61 97 1008.9
20260506030637 10 180 0.0 0.0 0.00 0.00 0.61 97 1008.9
20260506030037 10 180 0.0 0.0 0.00 0.00 0.61 96 1008.8
20260506025437 10 180 0.0 0.0 0.00 0.00 0.61 96 1008.8
20260506024837 10 180 0.0 0.0 0.00 0.00 0.61 96 1008.9
20260506024237 10 180 0.0 0.0 0.00 0.00 0.61 97 1008.8
20260506023637 10 180 0.0 0.0 0.00 0.00 0.61 96 1008.9
20260506023037 10 180 0.0 0.0 0.00 0.00 0.61 97 1009.1
20260506022437 10 225 0.0 0.0 0.00 0.00 0.61 97 1008.9
20260506021837 10 180 0.0 0.0 0.00 0.00 0.61 97 1009.0
20260506021236 10 180 0.0 0.0 0.00 0.00 0.61 97 1009.0
20260506020637 10 180 0.0 0.0 0.00 0.00 0.61 96 1009.1